Virginia Beach, VA

8:17 PM EST on February 20, 2017 (GMT -0500)
Norfolk International

Weather History for KORF - January, 2013

Change the Weather History Date:

Friday, January 18, 2013

  Actual Average Record
Temperature  
Mean Temperature 36 °F 40 °F  
Max Temperature 43 °F 48 °F 77 °F (1937)
Min Temperature 28 °F 33 °F 12 °F (1893)
Degree Days  
Heating Degree Days 29 25  
Month to date heating degree days 359 445  
Since 1 July heating degree days 1459 1624  
Cooling Degree Days 0 0  
Month to date cooling degree days 0 0  
Year to date cooling degree days 0 0  
Moisture  
Dew Point 29 °F    
Average Humidity 71    
Maximum Humidity 92    
Minimum Humidity 49    
Precipitation  
Precipitation 0.08 in 0.11 in 1.94 in (1987)
Month to date precipitation 2.35 1.99  
Year to date precipitation 2.35 1.99  
Snow  
Snow 0.00 in 0.10 in 2.20 in (1911)
Month to date snowfall T 1.5  
Since 1 July snowfall T 2.7  
Snow Depth 0.00 in    
Sea Level Pressure  
Sea Level Pressure 30.37 in    
Wind  
Wind Speed 8 mph (NNW)    
Max Wind Speed 23 mph    
Max Gust Speed 29 mph    
Visibility 10 miles    
Events      
T = Trace of Precipitation, MM = Missing Value Source: NWS Daily Summary

Daily Weather History Graph

Daily Weather History Graph

Search for Another Location

Airport or City:

Trip Planner

Search our weather history database for the weather conditions in past years. The results will help you decide how hot, cold, wet, or windy it might be!

Date:

Astronomy

Jan. 18, 2013 Rise Set
Actual Time 7:15 AM EST 5:15 PM EST
Civil Twilight 6:47 AM EST 5:43 PM EST
Nautical Twilight 6:15 AM EST 6:15 PM EST
Astronomical Twilight 5:44 AM EST 6:46 PM EST
Moon 11:05 AM EST (1/18) No Moon Set
Length of Visible Light 10h 55m
Length of Day
9h 59m
Waxing Crescent, 47% of the Moon is Illuminated
Jan 18
Waxing Crescent
Jan 18
First Quarter
Jan 26
Full
Feb 3
Last Quarter
Feb 10
New

Hourly Weather History & Observations

Time (EST) Temp. Windchill Dew Point Humidity Pressure Visibility Wind Dir Wind Speed Gust Speed Precip Events Conditions
12:51 AM 36.0 °F 28.0 °F 34.0 °F 93% 30.04 in 9.0 mi North 11.5 mph 18.4 mph 0.10 in   Overcast
1:51 AM 37.4 °F 29.8 °F 35.6 °F 93% 30.09 in 10.0 mi NNW 11.5 mph 24.2 mph N/A   Overcast
2:51 AM 37.0 °F 28.9 °F 35.1 °F 93% 30.11 in 10.0 mi North 12.7 mph 18.4 mph 0.00 in   Overcast
3:10 AM 37.4 °F 32.1 °F 35.6 °F 93% 30.12 in 10.0 mi NNW 6.9 mph - N/A   Overcast
3:51 AM 37.0 °F 30.4 °F 34.0 °F 89% 30.14 in 10.0 mi NNW 9.2 mph - N/A   Mostly Cloudy
4:51 AM 37.0 °F 30.4 °F 32.0 °F 82% 30.18 in 10.0 mi NW 9.2 mph - N/A   Clear
5:51 AM 36.0 °F 31.1 °F 30.9 °F 82% 30.23 in 10.0 mi NW 5.8 mph - N/A   Clear
6:51 AM 35.1 °F 32.2 °F 30.9 °F 85% 30.27 in 10.0 mi NW 3.5 mph - N/A   Clear
7:51 AM 36.0 °F - 32.0 °F 86% 30.31 in 10.0 mi Calm Calm - N/A   Clear
8:51 AM 39.0 °F 34.8 °F 30.9 °F 73% 30.37 in 10.0 mi NW 5.8 mph - N/A   Clear
9:51 AM 39.9 °F 33.9 °F 32.0 °F 73% 30.42 in 10.0 mi NNW 9.2 mph - N/A   Clear
10:51 AM 41.0 °F 33.1 °F 24.1 °F 51% 30.44 in 10.0 mi North 15.0 mph 28.8 mph N/A   Clear
11:51 AM 42.1 °F 34.5 °F 24.1 °F 49% 30.43 in 10.0 mi North 15.0 mph 23.0 mph N/A   Clear
12:51 PM 41.0 °F 32.2 °F 27.0 °F 57% 30.44 in 10.0 mi NNE 18.4 mph - N/A   Scattered Clouds
1:51 PM 42.1 °F 35.2 °F 27.0 °F 55% 30.45 in 10.0 mi NNE 12.7 mph 20.7 mph N/A   Clear
2:51 PM 41.0 °F 34.3 °F 26.1 °F 55% 30.47 in 10.0 mi North 11.5 mph - N/A   Clear
3:51 PM 39.9 °F 32.9 °F 26.1 °F 58% 30.49 in 10.0 mi NNE 11.5 mph - N/A   Clear
4:51 PM 37.4 °F 30.8 °F 24.8 °F 60% 30.51 in 10.0 mi NE 9.2 mph - N/A   Clear
5:51 PM 37.0 °F 31.6 °F 23.0 °F 57% 30.52 in 10.0 mi NNE 6.9 mph - N/A   Clear
6:51 PM 37.0 °F 34.5 °F 24.1 °F 59% 30.54 in 10.0 mi NNW 3.5 mph - N/A   Clear
7:51 PM 35.1 °F - 24.1 °F 64% 30.53 in 10.0 mi Calm Calm - N/A   Clear
8:51 PM 34.0 °F - 26.1 °F 73% 30.54 in 10.0 mi Calm Calm - N/A   Clear
9:51 PM 32.0 °F 28.7 °F 25.0 °F 75% 30.54 in 10.0 mi SSW 3.5 mph - N/A   Clear
10:51 PM 28.0 °F 22.8 °F 23.0 °F 81% 30.53 in 10.0 mi SW 4.6 mph - N/A   Clear
11:51 PM 30.9 °F - 25.0 °F 79% 30.51 in 10.0 mi Calm Calm - N/A   Clear